Regional Weather Roundup
Issued by NWS

Home | Current Version | Previous Version | Graphics & Text | Print | Product List | Glossary On
Versions: 1 2 3 4 5 6 7 8 9 10 11 12 13 14 15 16 17 18 19 20 21 22 23 24 25 26 27 28 29 30 31 32 33 34 35 36 37 38 39 40 41 42 43 44 45 46 47 48 49 50
000
ASUS43 KOAX 300402
RWRNE

WEATHER ROUNDUP FOR NEBRASKA
NATIONAL WEATHER SERVICE OMAHA NE
1100 PM CDT TUE JUL 29 2014

NOTES: SATELLITE DATA IS BEING USED TO AUGMENT CLOUD COVER ABOVE
       12000 FEET.
       "FAIR" INDICATES FEW OR NO CLOUDS BELOW 12,000 FEET WITH NO
       SIGNIFICANT WEATHER AND/OR OBSTRUCTIONS TO VISIBILITY.

  * THESE STATIONS DO NOT REPORT WEATHER SUCH AS RAIN...SNOW OR FOG.

NEZ001>004-019>022-054>056-300500-
NEBRASKA PANHANDLE

CITY           SKY/WX    TMP DP  RH WIND       PRES   REMARKS
SCOTTSBLUFF    LGT RAIN  65  64  97 W5        30.27R
ALLIANCE       CLOUDY    67  54  63 E5        30.24R
CHADRON        CLOUDY    63  55  75 N5        30.23R
KIMBALL        HVY RAIN  60  58  96 E7        30.28R
SIDNEY         LGT RAIN  63  57  81 S6        30.27R
$$

NEZ057>060-069>072-079>082-300500-
SOUTHWEST NEBRASKA

CITY           SKY/WX    TMP DP  RH WIND       PRES   REMARKS
NORTH PLATTE   CLOUDY    68  60  75 SE6       30.19R
IMPERIAL       CLOUDY    72  58  61 E13       30.18R
LEXINGTON      CLOUDY    69  61  74 E5        30.17R
MCCOOK         CLOUDY    71  59  65 E14       30.15R
OGALLALA       CLOUDY    67  60  77 E7        30.20R
$$

NEZ005>010-023>029-035>040-094-300500-
NORTH CENTRAL NEBRASKA

CITY           SKY/WX    TMP DP  RH WIND       PRES   REMARKS
VALENTINE      MOCLDY    61  50  67 NW3       30.20R
AINSWORTH      MOCLDY    62  54  75 CALM      30.19R
BROKEN BOW     CLOUDY    69  59  70 E8        30.18R
ORD            MOCLDY    64  59  83 CALM      30.17R
$$

NEZ041-046>049-061>064-073>077-083>087-300500-
SOUTH CENTRAL NEBRASKA

CITY           SKY/WX    TMP DP  RH WIND       PRES   REMARKS
GRAND ISLAND   CLOUDY    68  61  78 E3        30.17R
AURORA         CLOUDY    67  63  86 CALM      30.17R
HASTINGS       CLOUDY    68  56  65 E7        30.16R
HEBRON         CLOUDY    67  56  68 E3        30.14S
HOLDREGE       CLOUDY    67  59  74 E8        30.16S
KEARNEY *      CLOUDY    68  59  73 E9        30.17R
YORK           CLOUDY    64  59  82 NE5       30.16R
$$

NEZ011>018-030>034-042>045-300500-
NORTHEAST NEBRASKA

CITY           SKY/WX    TMP DP  RH WIND       PRES   REMARKS
NORFOLK        CLEAR     60  55  83 CALM      30.15S
ALBION         PTCLDY    61  56  84 CALM      30.18R
BLAIR          CLEAR     64  55  72 CALM      30.14R
COLUMBUS *     PTCLDY    61  55  82 CALM      30.16R
FREMONT        PTCLDY    65  58  79 CALM      30.15R
TEKAMAH        CLEAR     60  56  86 NW3       30.13S
WAYNE          CLEAR     57  55  93 CALM      30.15S
$$

NEZ050>053-065>068-078-088>093-300500-
SOUTHEAST NEBRASKA

CITY           SKY/WX    TMP DP  RH WIND       PRES   REMARKS
LINCOLN        MOCLDY    69  54  58 CALM      30.15R
OMAHA EPPLEY   CLEAR     63  58  83 NW5       30.14R
BEATRICE       PTCLDY    66  57  74 CALM      30.14S
FALLS CITY     PTCLDY    68  58  70 CALM      30.12R
NEBRASKA CITY  MOCLDY    65  55  69 CALM      30.14R
PLATTSMOUTH    MOCLDY    67  54  64 CALM      30.14R
$$

NEZ044-045-051>053-067-300500-
OMAHA AREA

CITY           SKY/WX    TMP DP  RH WIND       PRES   REMARKS
OMAHA EPPLEY   CLEAR     63  58  83 NW5       30.14R
BLAIR          CLEAR     64  55  72 CALM      30.14R
FREMONT        PTCLDY    65  58  79 CALM      30.15R
MILLARD        PTCLDY    65  58  80 CALM      30.14R
OFFUTT AFB     PTCLDY    60  60  99 CALM      30.13R
PLATTSMOUTH    MOCLDY    67  54  64 CALM      30.14R
WAHOO          FAIR      64  58  82 CALM      30.14S
$$



USA.gov is the U.S. government's official web portal to all federal, state and local government web resources and services.